Aérodrome :
LOGIN :

S'inscrire | Disclaimer

   EN    FR    IT 

 










Légende :    VFR   VFR Marginal   IFR   IFR Intensif   IFR Très Intensif
Visi : 
Plafond : 
>= 8 km
>= 3000ft
5 à 8 km
1000 à 3000 ft
1500m à 5 km
500 à 1000 ft
800 à 1500m
200 à 500 ft
< 800m
< 200 ft
Symboles :   Orages  Brouillard  Fortes neiges  Fortes précipitations  Vent > 20 kt
SIGMETs :   Divers  Orages  Givrage  Turbulence  Onde Orograph.  Cendres Volcan.







- Altitude de l'aérodrome : 36 ft
- Code IATA : LTQ
- Voir les cartes d'approche


LFAT - Le Touquet

DERNIER METAR :
  • 170900Z AUTO VRB02KT 9999 FEW023 16/14 Q1019 NOSIG

METARs EXPIRÉS :
  • 170830Z AUTO VRB02KT 7000 FEW023 BKN031 14/14 Q1019 NOSIG
  • 170800Z AUTO 14003KT 6000 SCT022 BKN029 OVC034 13/13 Q1019 NOSIG
  • 170730Z AUTO 14003KT 6000 OVC023 13/12 Q1019 NOSIG
  • 170700Z AUTO 14003KT 5000 BR OVC021 12/12 Q1019 NOSIG
  • 170630Z AUTO 15003KT 4500 BR BKN019 12/12 Q1019 BECMG 9999 NSW

TAF TAF LFAT
Valide du 17 à 09h jusqu'au 17 à 18h UTC


170800Z 1709/1718 VRB03KT 9999 BKN020
ATIS : +33 3 21 06 62 84
Pas de NOTAMs connus pour ce terrain.



MET'MAP, la Météo Aéronautique d'un coup d'oeil ! - Copyright ORBIFLY Décembre 2007 - Disclaimer

ORBIFLY MET'MAP TEAM :

Programmation & Développement : Alexandra Zaïnal
Conception & Développement : Baudouin d'Aumeries
Co-Programmation & Développement : Marc-Olivier Méhu
Soutien technique & logistique : Manuel Goepfert

Contact : metmap@orbifly.com




SOURCES & CREDITS :

   NOAA